Location: Newark
(13.8625°N, 100.5144°E)
Time: 02:56:06
(UTC+00:00)

BEESAT - Visible Passes

Search period start: 05 August 2021 00:00
Search period end: 15 August 2021 00:00
Orbit: 700 x 707 km, 98.6° (Epoch: 04 August)

Date Brightness Start Highest point End Pass type
(mag) Time Alt. Az. Time Alt. Az. Time Alt. Az.
05 Aug ? 12:47:36 10° N 12:52:13 50° WNW 12:56:49 10° SSW visible
06 Aug ? 13:32:38 10° NW 13:35:13 15° WNW 13:37:47 10° WSW visible
07 Aug ? 12:36:14 10° N 12:40:59 72° WNW 12:45:44 10° SSW visible
08 Aug ? 13:20:33 10° NNW 13:24:01 20° WNW 13:27:30 10° WSW visible
09 Aug ? 12:24:58 10° NNE 12:29:45 81° E 12:34:31 10° S visible
10 Aug ? 13:08:47 10° NNW 13:12:50 28° WNW 13:16:53 10° SW visible
11 Aug ? 12:13:50 10° NNE 12:18:31 57° ESE 12:23:11 10° S visible
12 Aug ? 12:57:12 10° N 13:01:38 39° WNW 13:06:03 10° SW visible
13 Aug ? 12:02:48 10° NNE 12:07:16 40° E 12:11:43 10° S visible
13 Aug ? 13:43:09 10° NW 13:44:35 11° WNW 13:46:02 10° W visible
14 Aug ? 12:45:45 10° N 12:50:24 56° WNW 12:55:04 10° SSW visible
